[[{"header":{"parameterUnit":"m.s-1","parameterCategory":1,"la1":30.2992,"la2":30.254,"lo1":-89.0895,"lo2":-89.0443,"dy":0.0025,"dx":0.0025,"nx":19,"ny":19,"refTime":"2026-04-29T03:00:00:Z","depth":0,"parameterNumber":2,"parameterNumberName":"U-component_of_WINDS"},"data":[0,0,0,1.6207,1.6209,1.6283,1.6283,1.6371,1.6372,0,0,0,0,0,0,0,0,0,0,0,1.618,1.618,1.6207,1.6209,1.6283,1.6283,1.6371,1.6372,0,0,0,0,0,0,0,0,0,0,0,1.618,1.618,1.6181,1.6209,1.6282,1.6283,1.6371,1.6318,0,0,0,0,0,0,0,0,0,0,1.6248,1.6216,1.618,1.6181,1.621,1.6282,1.6283,1.6315,1.6321,1.6335,0,1.6343,0,1.6359,1.6377,1.6378,0,0,0,1.6214,1.6212,1.6236,1.6181,1.621,1.6282,1.6251,1.6319,1.6325,1.6342,1.6345,1.6348,1.636,1.6378,1.6378,1.6436,1.6436,0,0,1.6209,1.6191,1.6232,1.624,1.6226,1.6248,1.6253,1.6323,1.6325,1.6345,1.6351,1.6362,1.6378,1.6379,1.6436,1.6436,0,0,0,1.6195,1.6188,1.6211,1.6236,1.625,1.625,1.6256,1.6322,1.6331,1.6352,1.6363,1.6379,1.638,1.6436,1.6436,1.642,0,0,0,1.6192,1.6179,1.6209,1.6198,1.6248,1.6286,1.6253,1.6326,1.6335,1.6362,1.6379,1.6381,1.6436,1.6436,1.642,1.6416,0,0,0,1.6177,1.6177,1.6186,1.6197,1.6228,1.6286,1.6299,1.6328,1.6341,1.6378,1.6381,1.6436,1.6436,1.6421,1.6416,1.6425,0,0,0,1.6156,1.6171,1.6185,1.6207,1.6227,1.6274,1.6299,1.6336,1.6365,1.6379,1.6436,1.6436,1.6421,1.6417,1.6425,1.6429,1.6429,0,0,1.6165,1.6172,1.6186,1.6201,1.6241,1.6265,1.6303,1.6349,1.637,1.6413,1.6415,1.642,1.6416,1.6425,1.6434,1.6434,0,0,0,1.6183,1.6193,1.6207,1.6233,1.6267,1.6296,1.6337,1.6354,1.6392,1.6388,1.6426,1.6425,1.6431,1.6434,1.6433,1.644,1.6437,1.6437,1.6437,1.6169,1.6194,1.622,1.6254,1.6279,1.6321,1.6345,1.6375,1.6394,1.6403,1.6416,1.6418,1.6421,1.642,1.6427,1.642,1.642,1.642,1.642,1.6184,1.6203,1.6227,1.6261,1.6288,1.6318,1.6359,1.6372,1.6404,1.641,1.6417,1.6422,1.6419,1.6426,1.6419,1.6419,1.6419,1.6419,1.6419,1.6178,1.6191,1.6211,1.6251,1.628,1.6315,1.6344,1.6369,1.6392,1.6399,1.6415,1.6416,1.6419,1.6405,1.6405,1.6405,1.6405,1.6405,1.6405,1.6164,1.6186,1.6207,1.6244,1.6264,1.6294,1.6337,1.6358,1.6387,1.6403,1.6403,1.6422,1.6414,1.6411,1.6405,1.6405,1.6405,1.6405,1.6405,1.617,1.6173,1.6205,1.6225,1.6271,1.6298,1.6328,1.6369,1.639,1.6404,1.6422,1.6411,1.6421,1.6421,1.6419,1.6416,1.6416,1.6416,1.6416,1.6165,1.6172,1.621,1.624,1.6273,1.6304,1.6341,1.6375,1.641,1.6425,1.643,1.6429,1.6428,1.6438,1.6438,1.6437,1.6438,1.6438,1.6438,1.617,1.6181,1.6207,1.624,1.6279,1.6311,1.6347,1.6382,1.6423,1.644,1.6438,1.6437,1.6436,1.6435,1.6451,1.645,1.6448,0,0]},{"header":{"parameterUnit":"m.s-1","parameterCategory":1,"la1":30.2992,"la2":30.254,"lo1":-89.0895,"lo2":-89.0443,"dy":0.0025,"dx":0.0025,"nx":19,"ny":19,"refTime":"2026-04-29T03:00:00:Z","depth":0,"parameterNumber":3,"parameterNumberName":"V-component_of_WINDS"},"data":[0,0,0,3.4253,3.4253,3.4254,3.4254,3.4255,3.4255,0,0,0,0,0,0,0,0,0,0,0,3.4252,3.4252,3.4253,3.4253,3.4254,3.4254,3.4255,3.4255,0,0,0,0,0,0,0,0,0,0,0,3.4252,3.4252,3.4252,3.4253,3.4254,3.4254,3.4255,3.4254,0,0,0,0,0,0,0,0,0,0,3.4253,3.4251,3.4252,3.4252,3.4253,3.4254,3.4254,3.4254,3.4254,3.4253,0,3.4253,0,3.4254,3.4255,3.4254,0,0,0,3.4253,3.4251,3.4252,3.4252,3.4253,3.4254,3.4254,3.4254,3.4254,3.4253,3.4253,3.4253,3.4254,3.4254,3.4254,3.4249,3.4249,0,0,3.4253,3.4251,3.4252,3.4252,3.4252,3.4254,3.4254,3.4254,3.4253,3.4253,3.4253,3.4254,3.4254,3.4254,3.4249,3.4249,0,0,0,3.4253,3.4251,3.4253,3.4252,3.4253,3.4254,3.4254,3.4253,3.4254,3.4253,3.4254,3.4254,3.4254,3.4249,3.4249,3.4245,0,0,0,3.4253,3.4251,3.4253,3.4251,3.4253,3.4253,3.4253,3.4254,3.4254,3.4254,3.4254,3.4254,3.4249,3.4249,3.4246,3.4244,0,0,0,3.4252,3.4251,3.4251,3.4251,3.4252,3.4253,3.4254,3.4254,3.4254,3.4254,3.4254,3.425,3.4249,3.4246,3.4244,3.4242,0,0,0,3.425,3.4247,3.4251,3.4248,3.4252,3.4251,3.4254,3.4253,3.4252,3.4254,3.4249,3.4249,3.4246,3.4244,3.4242,3.424,3.4239,0,0,3.4245,3.4247,3.4245,3.4248,3.4246,3.4251,3.4248,3.4249,3.425,3.425,3.4249,3.4246,3.4244,3.4242,3.4233,3.4232,0,0,0,3.4243,3.4241,3.4241,3.4241,3.4242,3.4243,3.4245,3.4246,3.4245,3.425,3.4244,3.4244,3.4242,3.4241,3.4241,3.424,3.4249,3.4249,3.4249,3.4233,3.4235,3.4233,3.4235,3.4235,3.4238,3.4238,3.4239,3.4241,3.424,3.4239,3.4234,3.4233,3.4232,3.4231,3.4238,3.4238,3.4238,3.4238,3.4225,3.4224,3.4228,3.4227,3.4229,3.4228,3.423,3.4232,3.4231,3.4234,3.4233,3.4236,3.4231,3.423,3.4238,3.4238,3.4238,3.4238,3.4238,3.4219,3.4219,3.422,3.422,3.422,3.4223,3.4222,3.4225,3.4227,3.4226,3.4226,3.4226,3.4226,3.4226,3.4226,3.4226,3.4226,3.4226,3.4226,3.4212,3.4213,3.4213,3.4214,3.4215,3.4215,3.4218,3.4218,3.4219,3.4221,3.4221,3.4223,3.423,3.4232,3.4226,3.4226,3.4226,3.4226,3.4226,3.4204,3.4206,3.4205,3.4206,3.4207,3.4207,3.4211,3.4211,3.4212,3.4211,3.4214,3.4219,3.422,3.422,3.4222,3.4214,3.4214,3.4214,3.4214,3.4198,3.4199,3.4199,3.42,3.4201,3.4203,3.4202,3.4204,3.4206,3.4207,3.4209,3.4211,3.4211,3.4212,3.4213,3.4214,3.4204,3.4204,3.4204,3.4193,3.4195,3.4193,3.4196,3.4198,3.4199,3.4198,3.4198,3.4201,3.4204,3.4207,3.4208,3.4211,3.4212,3.4214,3.4215,3.4218,0,0]}]]